| time (UTC) | temp F | wind direction | speed MPH | gust MPH | rain 1hr in | rain 24hr in | rain mn in | humidity % | barometer mb |
| 20260509191526 | 67 | 22 | 3.0 | 8.0 | 0.00 | 0.00 | 0.00 | 61 | 1018.3 |
| 20260509190023 | 67 | 24 | 2.0 | 6.0 | 0.00 | 0.00 | 0.00 | 59 | 1018.6 |
| 20260509184520 | 66 | 277 | 1.0 | 7.0 | 0.00 | 0.00 | 0.00 | 61 | 1018.7 |
| 20260509183012 | 65 | 305 | 1.0 | 5.0 | 0.00 | 0.00 | 0.00 | 60 | 1018.8 |
| 20260509181507 | 64 | 42 | 1.0 | 7.0 | 0.00 | 0.00 | 0.00 | 61 | 1019.0 |
| 20260509180002 | 63 | 17 | 0.0 | 4.0 | 0.00 | 0.00 | 0.00 | 62 | 1019.0 |
| 20260509174602 | 62 | 83 | 2.0 | 5.0 | 0.00 | 0.00 | 0.00 | 62 | 1019.2 |
| 20260509173106 | 61 | 21 | 1.0 | 6.0 | 0.00 | 0.00 | 0.00 | 63 | 1019.2 |
| 20260509171612 | 60 | 17 | 1.0 | 4.0 | 0.00 | 0.00 | 0.00 | 62 | 1019.3 |
| 20260509170046 | 59 | 120 | 2.0 | 5.0 | 0.00 | 0.00 | 0.00 | 63 | 1019.6 |
| 20260509164541 | 58 | 20 | 0.0 | 4.0 | 0.00 | 0.00 | 0.00 | 62 | 1019.7 |
| 20260509163037 | 57 | 57 | 1.0 | 3.0 | 0.00 | 0.00 | 0.00 | 62 | 1020.0 |
| 20260509161535 | 56 | 42 | 1.0 | 3.0 | 0.00 | 0.00 | 0.00 | 60 | 1020.2 |
| 20260509160028 | 56 | 34 | 0.0 | 3.0 | 0.00 | 0.00 | 0.00 | 59 | 1020.2 |
| 20260509154524 | 55 | 66 | 0.0 | 3.0 | 0.00 | 0.00 | 0.00 | 54 | 1020.3 |
| 20260509153021 | 54 | 69 | 1.0 | 3.0 | 0.00 | 0.00 | 0.00 | 49 | 1020.5 |
| 20260509151514 | 53 | 61 | 1.0 | 4.0 | 0.00 | 0.00 | 0.00 | 45 | 1020.8 |
| 20260509150010 | 52 | 360 | 0.0 | 5.0 | 0.00 | 0.00 | 0.00 | 37 | 1020.9 |
| 20260509144506 | 51 | 293 | 1.0 | 3.0 | 0.00 | 0.00 | 0.00 | 19 | 1020.9 |
| 20260509143003 | 49 | 282 | 0.0 | 2.0 | 0.00 | 0.00 | 0.00 | 100 | 1020.6 |
| 20260509141557 | 47 | 281 | 0.0 | 0.0 | 0.00 | 0.00 | 0.00 | 100 | 1020.7 |
| 20260509140052 | 45 | 281 | 0.0 | 1.0 | 0.00 | 0.00 | 0.00 | 100 | 1020.7 |
| 20260509134549 | 44 | 282 | 0.0 | 0.0 | 0.00 | 0.00 | 0.00 | 4 | 1020.7 |
| 20260509133047 | 43 | 282 | 0.0 | 1.0 | 0.00 | 0.00 | 0.00 | 11 | 1020.7 |
| 20260509131542 | 43 | 282 | 0.0 | 1.0 | 0.00 | 0.00 | 0.00 | 14 | 1020.6 |
| 20260509130037 | 43 | 281 | 0.0 | 0.0 | 0.00 | 0.00 | 0.00 | 16 | 1020.6 |
| 20260509124547 | 43 | 281 | 0.0 | 1.0 | 0.00 | 0.00 | 0.00 | 17 | 1020.8 |
| 20260509123031 | 44 | 281 | 0.0 | 1.0 | 0.00 | 0.00 | 0.00 | 18 | 1020.8 |
| 20260509121533 | 44 | 281 | 0.0 | 1.0 | 0.00 | 0.00 | 0.00 | 21 | 1020.9 |
| 20260509120027 | 45 | 281 | 0.0 | 0.0 | 0.00 | 0.00 | 0.00 | 20 | 1020.9 |
| 20260509114525 | 45 | 281 | 0.0 | 0.0 | 0.00 | 0.00 | 0.00 | 22 | 1021.0 |
| 20260509113024 | 45 | 281 | 0.0 | 0.0 | 0.00 | 0.00 | 0.00 | 22 | 1021.0 |
| 20260509111523 | 45 | 281 | 0.0 | 0.0 | 0.00 | 0.00 | 0.00 | 23 | 1020.9 |
| 20260509110019 | 46 | 281 | 0.0 | 0.0 | 0.00 | 0.00 | 0.00 | 25 | 1021.1 |
| 20260509104529 | 46 | 281 | 0.0 | 0.0 | 0.00 | 0.00 | 0.00 | 25 | 1021.2 |
| 20260509103016 | 46 | 281 | 0.0 | 1.0 | 0.00 | 0.00 | 0.00 | 26 | 1021.3 |
| 20260509101517 | 47 | 281 | 0.0 | 0.0 | 0.00 | 0.00 | 0.00 | 29 | 1021.3 |
| 20260509100024 | 47 | 281 | 0.0 | 0.0 | 0.00 | 0.00 | 0.00 | 34 | 1021.3 |
| 20260509094517 | 47 | 281 | 0.0 | 0.0 | 0.00 | 0.00 | 0.00 | 35 | 1021.4 |
| 20260509093007 | 48 | 281 | 0.0 | 0.0 | 0.00 | 0.00 | 0.00 | 37 | 1021.4 |
| 20260509091505 | 48 | 281 | 0.0 | 0.0 | 0.00 | 0.00 | 0.00 | 39 | 1021.5 |
| 20260509090002 | 49 | 281 | 0.0 | 0.0 | 0.00 | 0.00 | 0.00 | 42 | 1021.5 |
| 20260509084602 | 49 | 281 | 0.0 | 0.0 | 0.00 | 0.00 | 0.00 | 44 | 1021.6 |
| 20260509083056 | 49 | 281 | 0.0 | 0.0 | 0.00 | 0.00 | 0.00 | 48 | 1021.7 |
| 20260509081553 | 50 | 281 | 0.0 | 0.0 | 0.00 | 0.00 | 0.00 | 52 | 1021.9 |
| 20260509080056 | 51 | 281 | 0.0 | 0.0 | 0.00 | 0.00 | 0.00 | 56 | 1021.8 |
| 20260509074548 | 51 | 281 | 0.0 | 0.0 | 0.00 | 0.00 | 0.00 | 58 | 1021.8 |
| 20260509073051 | 52 | 281 | 0.0 | 0.0 | 0.00 | 0.00 | 0.00 | 60 | 1021.9 |
| 20260509071552 | 53 | 281 | 0.0 | 0.0 | 0.00 | 0.00 | 0.00 | 63 | 1021.9 |
| 20260509070042 | 53 | 281 | 0.0 | 2.0 | 0.00 | 0.00 | 0.00 | 65 | 1021.9 |
| 20260509064540 | 54 | 281 | 0.0 | 0.0 | 0.00 | 0.00 | 0.00 | 66 | 1021.9 |
| 20260509063041 | 54 | 281 | 0.0 | 1.0 | 0.00 | 0.00 | 0.00 | 67 | 1021.9 |
| 20260509061547 | 55 | 281 | 0.0 | 1.0 | 0.00 | 0.00 | 0.00 | 69 | 1021.9 |
| 20260509060039 | 55 | 281 | 0.0 | 2.0 | 0.00 | 0.00 | 0.00 | 69 | 1021.9 |
| 20260509054548 | 56 | 281 | 0.0 | 2.0 | 0.00 | 0.00 | 0.00 | 69 | 1022.1 |
| 20260509053038 | 57 | 273 | 0.0 | 4.0 | 0.00 | 0.00 | 0.00 | 69 | 1021.9 |
| 20260509051539 | 57 | 250 | 1.0 | 4.0 | 0.00 | 0.00 | 0.00 | 68 | 1021.8 |
| 20260509050049 | 58 | 216 | 1.0 | 4.0 | 0.00 | 0.00 | 0.00 | 68 | 1021.7 |
| 20260509044545 | 58 | 183 | 0.0 | 3.0 | 0.00 | 0.00 | 0.00 | 68 | 1021.7 |
| 20260509043036 | 58 | 182 | 0.0 | 1.0 | 0.00 | 0.00 | 0.00 | 68 | 1021.6 |
| 20260509041536 | 59 | 184 | 0.0 | 2.0 | 0.00 | 0.00 | 0.00 | 68 | 1021.3 |
| 20260509040038 | 59 | 225 | 0.0 | 2.0 | 0.00 | 0.00 | 0.00 | 67 | 1021.3 |
| 20260509034540 | 60 | 256 | 0.0 | 4.0 | 0.00 | 0.00 | 0.00 | 67 | 1021.2 |
| 20260509033035 | 60 | 295 | 0.0 | 3.0 | 0.00 | 0.00 | 0.00 | 66 | 1021.1 |
| 20260509031535 | 61 | 289 | 0.0 | 3.0 | 0.00 | 0.00 | 0.00 | 65 | 1021.0 |
| 20260509030035 | 62 | 299 | 0.0 | 5.0 | 0.00 | 0.00 | 0.00 | 64 | 1020.8 |
| 20260509024533 | 63 | 284 | 1.0 | 4.0 | 0.00 | 0.00 | 0.00 | 61 | 1020.7 |
| 20260509023038 | 64 | 288 | 1.0 | 3.0 | 0.00 | 0.00 | 0.00 | 59 | 1020.6 |
| 20260509021533 | 65 | 273 | 0.0 | 5.0 | 0.00 | 0.00 | 0.00 | 58 | 1020.6 |
| 20260509020031 | 66 | 299 | 0.0 | 3.0 | 0.00 | 0.00 | 0.00 | 56 | 1020.6 |
| 20260509014531 | 65 | 302 | 1.0 | 5.0 | 0.00 | 0.00 | 0.00 | 57 | 1020.7 |
| 20260509013045 | 66 | 265 | 1.0 | 4.0 | 0.00 | 0.00 | 0.00 | 55 | 1020.8 |
| 20260509011533 | 67 | 284 | 1.0 | 6.0 | 0.00 | 0.00 | 0.00 | 55 | 1020.8 |
| 20260509010030 | 67 | 313 | 0.0 | 3.0 | 0.00 | 0.00 | 0.00 | 56 | 1021.0 |
| 20260509004532 | 66 | 272 | 2.0 | 5.0 | 0.00 | 0.00 | 0.00 | 55 | 1021.1 |
| 20260509003032 | 66 | 278 | 2.0 | 8.0 | 0.00 | 0.00 | 0.00 | 54 | 1021.1 |
| 20260509001528 | 67 | 276 | 1.0 | 8.0 | 0.00 | 0.00 | 0.00 | 53 | 1021.1 |
| 20260509000027 | 66 | 226 | 0.0 | 8.0 | 0.00 | 0.00 | 0.00 | 53 | 1021.1 |
| 20260508234527 | 67 | 274 | 3.0 | 6.0 | 0.00 | 0.00 | 0.00 | 51 | 1021.2 |
| 20260508233026 | 67 | 223 | 0.0 | 4.0 | 0.00 | 0.00 | 0.00 | 51 | 1021.3 |
| 20260508231525 | 66 | 292 | 1.0 | 5.0 | 0.00 | 0.00 | 0.00 | 53 | 1021.1 |
| 20260508230045 | 66 | 17 | 0.0 | 4.0 | 0.00 | 0.00 | 0.00 | 55 | 1021.3 |
| 20260508224551 | 67 | 287 | 2.0 | 6.0 | 0.00 | 0.00 | 0.00 | 53 | 1021.3 |
| 20260508223030 | 65 | 291 | 2.0 | 5.0 | 0.00 | 0.00 | 0.00 | 53 | 1021.4 |
| 20260508221520 | 65 | 148 | 2.0 | 5.0 | 0.00 | 0.00 | 0.00 | 54 | 1021.5 |
| 20260508220018 | 64 | 207 | 1.0 | 7.0 | 0.00 | 0.00 | 0.00 | 55 | 1021.6 |
| 20260508214517 | 64 | 202 | 1.0 | 7.0 | 0.00 | 0.00 | 0.00 | 54 | 1021.7 |
| 20260508213015 | 63 | 209 | 1.0 | 4.0 | 0.00 | 0.00 | 0.00 | 55 | 1021.6 |
| 20260508211514 | 63 | 254 | 3.0 | 8.0 | 0.00 | 0.00 | 0.00 | 54 | 1021.7 |
| 20260508210010 | 62 | 157 | 2.0 | 7.0 | 0.00 | 0.00 | 0.00 | 55 | 1021.6 |
| 20260508204516 | 61 | 243 | 2.0 | 9.0 | 0.00 | 0.00 | 0.00 | 54 | 1021.6 |
| 20260508203007 | 61 | 182 | 2.0 | 7.0 | 0.00 | 0.00 | 0.00 | 54 | 1021.7 |
| 20260508201504 | 60 | 301 | 1.0 | 9.0 | 0.00 | 0.00 | 0.00 | 54 | 1021.8 |
| 20260508200004 | 60 | 192 | 1.0 | 5.0 | 0.00 | 0.00 | 0.00 | 55 | 1021.9 |
| 20260508194601 | 59 | 174 | 3.0 | 8.0 | 0.00 | 0.00 | 0.00 | 58 | 1022.0 |
| 20260508193134 | 59 | 294 | 1.0 | 7.0 | 0.00 | 0.00 | 0.00 | 57 | 1022.1 |